Precipitable_Water
0.61 0.60 0.59 0.59 0.58 0.57 0.56 0.55 0.54 0.53 0.52 0.50 0.49 0.49 0.48 0.48 0.47 0.47 0.48 0.48 0.47 0.47 0.47 0.46 0.48 0.47 0.46 0.46 0.45 0.44 0.42 0.31 0.25 0.21 0.20 0.18 0.23 0.23 0.25 0.25 0.33 0.31 0.38 0.36 0.33 0.27 0.22 0.23 0.22 0.27 0.26 0.28 0.30 0.27 0.34 0.32 0.33 0.29 0.19 0.17 0.14 0.19 0.19 0.21 0.19 0.19 0.21 0.19 0.19 0.20 0.21 0.21 0.23 0.38 0.48 0.67 0.60 0.61 0.64 0.69 0.80 0.87 0.84 0.93 1.00 1.09 1.15 1.18
0.61 0.61 0.60 0.59 0.58 0.57 0.57 0.56 0.55 0.54 0.53 0.51 0.50 0.49 0.48 0.48 0.48 0.47 0.47 0.46 0.46 0.45 0.45 0.46 0.45 0.46 0.45 0.43 0.43 0.43 0.37 0.29 0.21 0.21 0.18 0.23 0.24 0.25 0.24 0.23 0.37 0.35 0.35 0.26 0.24 0.23 0.19 0.18 0.20 0.23 0.24 0.24 0.35 0.27 0.35 0.27 0.32 0.22 0.19 0.17 0.14 0.21 0.22 0.24 0.22 0.22 0.21 0.20 0.21 0.21 0.21 0.20 0.20 0.34 0.39 0.41 0.45 0.54 0.52 0.62 0.73 0.68 0.81 0.94 1.00 1.06 1.07 1.09
0.61 0.61 0.61 0.60 0.59 0.58 0.57 0.56 0.55 0.55 0.54 0.53 0.51 0.50 0.48 0.48 0.48 0.47 0.47 0.46 0.45 0.44 0.45 0.44 0.45 0.44 0.43 0.43 0.41 0.41 0.35 0.22 0.22 0.16 0.16 0.20 0.22 0.23 0.23 0.22 0.32 0.45 0.33 0.23 0.26 0.25 0.19 0.18 0.20 0.21 0.24 0.24 0.30 0.26 0.28 0.26 0.26 0.25 0.20 0.14 0.17 0.24 0.24 0.23 0.23 0.22 0.23 0.23 0.21 0.20 0.21 0.20 0.21 0.23 0.36 0.38 0.42 0.52 0.43 0.51 0.65 0.63 0.66 0.79 0.90 0.98 1.00 1.03
0.63 0.62 0.61 0.61 0.60 0.59 0.59 0.58 0.56 0.55 0.54 0.54 0.52 0.51 0.49 0.48 0.48 0.48 0.47 0.46 0.45 0.44 0.43 0.43 0.43 0.43 0.42 0.40 0.41 0.38 0.29 0.21 0.14 0.14 0.22 0.29 0.32 0.28 0.25 0.22 0.29 0.42 0.38 0.31 0.30 0.26 0.25 0.22 0.21 0.21 0.23 0.23 0.28 0.31 0.25 0.26 0.20 0.23 0.21 0.16 0.21 0.25 0.23 0.23 0.24 0.23 0.23 0.23 0.21 0.20 0.20 0.20 0.20 0.22 0.32 0.41 0.38 0.41 0.49 0.57 0.54 0.58 0.64 0.72 0.82 0.87 0.91 0.92
0.64 0.63 0.61 0.61 0.60 0.60 0.59 0.58 0.58 0.56 0.55 0.54 0.53 0.52 0.50 0.49 0.49 0.48 0.47 0.45 0.45 0.44 0.43 0.42 0.42 0.41 0.40 0.40 0.38 0.36 0.22 0.12 0.12 0.27 0.44 0.44 0.41 0.40 0.30 0.25 0.32 0.37 0.35 0.35 0.31 0.25 0.24 0.22 0.20 0.21 0.24 0.20 0.27 0.27 0.25 0.26 0.24 0.21 0.18 0.21 0.26 0.25 0.22 0.23 0.24 0.24 0.23 0.23 0.21 0.20 0.19 0.19 0.22 0.27 0.35 0.31 0.21 0.24 0.40 0.51 0.66 0.64 0.65 0.65 0.70 0.81 0.87 0.91
0.62 0.61 0.61 0.61 0.62 0.61 0.60 0.59 0.58 0.58 0.56 0.55 0.53 0.52 0.51 0.50 0.48 0.48 0.47 0.46 0.44 0.44 0.43 0.42 0.42 0.40 0.40 0.38 0.35 0.31 0.16 0.09 0.32 0.37 0.56 0.48 0.42 0.43 0.35 0.31 0.35 0.36 0.35 0.32 0.26 0.21 0.21 0.22 0.20 0.19 0.21 0.22 0.22 0.20 0.22 0.25 0.26 0.17 0.20 0.23 0.26 0.27 0.24 0.24 0.24 0.23 0.22 0.21 0.20 0.19 0.20 0.21 0.20 0.20 0.28 0.28 0.21 0.21 0.49 0.65 0.67 0.71 0.69 0.74 0.78 0.78 0.78 0.85
0.61 0.59 0.59 0.60 0.60 0.60 0.60 0.60 0.60 0.59 0.57 0.56 0.55 0.54 0.52 0.50 0.49 0.48 0.47 0.46 0.45 0.44 0.43 0.43 0.41 0.41 0.39 0.36 0.36 0.25 0.15 0.12 0.18 0.41 0.54 0.48 0.42 0.42 0.40 0.38 0.38 0.37 0.36 0.30 0.24 0.18 0.20 0.20 0.20 0.19 0.20 0.20 0.22 0.20 0.23 0.23 0.24 0.21 0.19 0.24 0.25 0.25 0.22 0.24 0.23 0.23 0.22 0.21 0.20 0.21 0.22 0.20 0.20 0.18 0.23 0.26 0.30 0.29 0.60 0.72 0.77 0.80 0.83 0.81 0.73 0.76 0.74 0.79
0.62 0.62 0.60 0.60 0.60 0.59 0.60 0.59 0.58 0.58 0.57 0.56 0.55 0.54 0.53 0.50 0.49 0.48 0.48 0.46 0.45 0.44 0.44 0.42 0.42 0.40 0.39 0.32 0.22 0.15 0.17 0.13 0.15 0.22 0.40 0.45 0.46 0.48 0.44 0.38 0.35 0.37 0.32 0.25 0.21 0.17 0.20 0.19 0.17 0.22 0.20 0.17 0.20 0.19 0.24 0.24 0.24 0.18 0.18 0.23 0.23 0.23 0.22 0.23 0.23 0.22 0.22 0.21 0.22 0.21 0.19 0.19 0.19 0.19 0.20 0.28 0.39 0.54 0.72 0.78 0.78 0.83 0.82 0.80 0.76 0.74 0.83 0.85
0.62 0.61 0.61 0.61 0.60 0.60 0.59 0.60 0.59 0.58 0.57 0.56 0.54 0.53 0.52 0.50 0.48 0.48 0.47 0.46 0.44 0.44 0.43 0.43 0.40 0.41 0.43 0.31 0.18 0.14 0.12 0.16 0.18 0.22 0.40 0.44 0.54 0.49 0.40 0.29 0.37 0.32 0.27 0.26 0.23 0.20 0.20 0.19 0.22 0.23 0.17 0.19 0.25 0.20 0.24 0.21 0.18 0.21 0.20 0.22 0.22 0.22 0.22 0.22 0.21 0.21 0.21 0.21 0.21 0.20 0.18 0.18 0.18 0.19 0.21 0.42 0.49 0.69 0.78 0.77 0.79 0.81 0.79 0.74 0.75 0.81 0.87 0.89
0.61 0.59 0.59 0.62 0.61 0.59 0.59 0.59 0.58 0.58 0.57 0.55 0.54 0.53 0.51 0.50 0.48 0.47 0.47 0.46 0.44 0.43 0.43 0.43 0.42 0.42 0.32 0.25 0.21 0.11 0.12 0.25 0.32 0.31 0.35 0.44 0.54 0.47 0.40 0.36 0.35 0.32 0.26 0.24 0.22 0.19 0.19 0.23 0.24 0.29 0.31 0.25 0.30 0.23 0.26 0.24 0.21 0.21 0.22 0.23 0.21 0.21 0.21 0.21 0.20 0.20 0.20 0.19 0.20 0.18 0.17 0.17 0.18 0.17 0.18 0.45 0.61 0.75 0.74 0.78 0.84 0.78 0.70 0.74 0.77 0.84 0.88 0.94
0.59 0.58 0.57 0.59 0.61 0.60 0.58 0.58 0.58 0.57 0.57 0.55 0.54 0.51 0.50 0.49 0.47 0.45 0.46 0.45 0.44 0.44 0.43 0.42 0.45 0.38 0.27 0.29 0.14 0.10 0.14 0.26 0.47 0.48 0.51 0.53 0.51 0.43 0.37 0.38 0.38 0.32 0.27 0.25 0.20 0.17 0.21 0.31 0.34 0.38 0.32 0.27 0.24 0.23 0.25 0.26 0.28 0.25 0.24 0.23 0.22 0.21 0.20 0.20 0.19 0.19 0.19 0.18 0.19 0.19 0.17 0.17 0.17 0.16 0.23 0.36 0.64 0.73 0.63 0.70 0.72 0.73 0.74 0.76 0.80 0.84 0.88 0.90
0.59 0.59 0.58 0.58 0.58 0.58 0.59 0.57 0.56 0.56 0.55 0.54 0.52 0.50 0.49 0.48 0.46 0.45 0.45 0.45 0.44 0.44 0.42 0.42 0.44 0.43 0.33 0.24 0.17 0.13 0.28 0.31 0.50 0.58 0.55 0.56 0.51 0.50 0.50 0.45 0.37 0.31 0.29 0.23 0.20 0.19 0.24 0.35 0.39 0.37 0.25 0.30 0.21 0.22 0.23 0.26 0.25 0.24 0.23 0.19 0.19 0.19 0.18 0.18 0.17 0.18 0.18 0.17 0.19 0.19 0.16 0.15 0.14 0.13 0.25 0.44 0.64 0.72 0.59 0.61 0.65 0.71 0.76 0.79 0.85 0.87 0.86 0.84
0.59 0.58 0.60 0.60 0.58 0.57 0.57 0.56 0.56 0.55 0.53 0.51 0.50 0.48 0.48 0.47 0.45 0.44 0.44 0.43 0.43 0.43 0.44 0.42 0.45 0.38 0.31 0.14 0.14 0.17 0.20 0.35 0.48 0.46 0.43 0.49 0.54 0.56 0.52 0.48 0.39 0.33 0.27 0.24 0.22 0.21 0.26 0.38 0.43 0.36 0.40 0.32 0.25 0.19 0.23 0.24 0.23 0.23 0.21 0.18 0.16 0.16 0.15 0.17 0.18 0.18 0.18 0.19 0.19 0.18 0.12 0.11 0.13 0.15 0.31 0.53 0.62 0.68 0.62 0.56 0.66 0.71 0.75 0.79 0.83 0.86 0.88 0.90
0.58 0.58 0.58 0.57 0.58 0.56 0.56 0.55 0.54 0.53 0.51 0.50 0.48 0.48 0.47 0.45 0.44 0.43 0.43 0.41 0.44 0.44 0.44 0.44 0.47 0.40 0.26 0.14 0.15 0.19 0.20 0.24 0.33 0.38 0.40 0.39 0.39 0.43 0.53 0.54 0.46 0.37 0.32 0.27 0.26 0.24 0.27 0.43 0.47 0.45 0.47 0.35 0.26 0.28 0.24 0.22 0.22 0.19 0.19 0.17 0.14 0.13 0.13 0.16 0.17 0.18 0.16 0.19 0.19 0.19 0.12 0.11 0.13 0.16 0.37 0.51 0.59 0.56 0.52 0.57 0.65 0.67 0.71 0.75 0.81 0.83 0.84 0.86
0.56 0.55 0.57 0.56 0.55 0.54 0.53 0.52 0.53 0.52 0.51 0.49 0.48 0.48 0.45 0.43 0.42 0.42 0.41 0.40 0.41 0.46 0.48 0.51 0.47 0.33 0.18 0.15 0.22 0.21 0.25 0.35 0.30 0.33 0.40 0.38 0.37 0.39 0.41 0.49 0.41 0.35 0.33 0.32 0.28 0.28 0.33 0.49 0.47 0.39 0.32 0.35 0.31 0.24 0.22 0.20 0.19 0.19 0.15 0.12 0.14 0.13 0.13 0.15 0.17 0.17 0.15 0.18 0.20 0.17 0.12 0.11 0.13 0.16 0.35 0.52 0.56 0.55 0.47 0.55 0.62 0.65 0.67 0.72 0.79 0.82 0.84 0.85
0.55 0.54 0.55 0.56 0.56 0.53 0.52 0.51 0.52 0.51 0.49 0.48 0.47 0.46 0.44 0.42 0.40 0.39 0.38 0.39 0.44 0.48 0.51 0.37 0.36 0.32 0.22 0.15 0.15 0.27 0.26 0.23 0.23 0.33 0.41 0.41 0.40 0.33 0.39 0.39 0.39 0.36 0.36 0.33 0.31 0.33 0.44 0.50 0.40 0.36 0.32 0.28 0.24 0.21 0.20 0.19 0.17 0.18 0.14 0.12 0.12 0.13 0.13 0.14 0.15 0.17 0.17 0.17 0.18 0.16 0.12 0.13 0.14 0.17 0.31 0.51 0.55 0.52 0.46 0.53 0.58 0.61 0.66 0.71 0.76 0.81 0.84 0.87
0.53 0.53 0.51 0.53 0.54 0.53 0.52 0.51 0.51 0.51 0.49 0.47 0.46 0.43 0.41 0.38 0.37 0.36 0.38 0.42 0.46 0.48 0.46 0.29 0.41 0.40 0.14 0.21 0.30 0.19 0.18 0.22 0.29 0.33 0.41 0.42 0.40 0.38 0.37 0.36 0.32 0.31 0.34 0.30 0.29 0.35 0.44 0.40 0.39 0.34 0.30 0.24 0.24 0.23 0.18 0.16 0.14 0.14 0.15 0.13 0.15 0.12 0.13 0.12 0.15 0.16 0.16 0.15 0.14 0.16 0.15 0.15 0.17 0.19 0.34 0.53 0.56 0.53 0.47 0.50 0.55 0.59 0.64 0.70 0.77 0.80 0.83 0.83
0.53 0.53 0.52 0.52 0.52 0.52 0.51 0.50 0.50 0.49 0.48 0.47 0.44 0.39 0.33 0.35 0.37 0.35 0.39 0.44 0.48 0.44 0.45 0.53 0.46 0.33 0.18 0.23 0.18 0.19 0.29 0.26 0.26 0.30 0.37 0.38 0.38 0.40 0.36 0.31 0.31 0.30 0.27 0.25 0.33 0.31 0.38 0.34 0.34 0.25 0.25 0.24 0.21 0.21 0.16 0.12 0.12 0.12 0.13 0.13 0.13 0.14 0.15 0.14 0.13 0.16 0.17 0.18 0.17 0.18 0.16 0.16 0.18 0.20 0.31 0.45 0.54 0.53 0.48 0.51 0.53 0.56 0.63 0.71 0.74 0.78 0.82 0.82
0.53 0.53 0.54 0.52 0.52 0.51 0.50 0.50 0.50 0.49 0.47 0.45 0.43 0.39 0.40 0.44 0.43 0.40 0.35 0.35 0.28 0.21 0.15 0.19 0.25 0.13 0.11 0.16 0.21 0.28 0.31 0.33 0.33 0.31 0.30 0.31 0.36 0.41 0.39 0.37 0.33 0.28 0.25 0.26 0.29 0.31 0.35 0.31 0.30 0.24 0.20 0.20 0.19 0.19 0.17 0.16 0.16 0.16 0.15 0.15 0.15 0.14 0.14 0.15 0.17 0.20 0.20 0.20 0.20 0.20 0.18 0.18 0.19 0.22 0.28 0.38 0.54 0.55 0.56 0.60 0.57 0.59 0.65 0.68 0.72 0.76 0.76 0.77
0.54 0.53 0.53 0.52 0.51 0.51 0.49 0.50 0.49 0.48 0.47 0.42 0.37 0.32 0.36 0.29 0.33 0.30 0.38 0.34 0.21 0.15 0.15 0.24 0.24 0.20 0.22 0.27 0.26 0.35 0.39 0.39 0.29 0.31 0.32 0.33 0.34 0.34 0.35 0.35 0.33 0.33 0.28 0.23 0.27 0.28 0.32 0.23 0.20 0.19 0.19 0.19 0.20 0.21 0.20 0.21 0.19 0.18 0.17 0.16 0.15 0.15 0.16 0.18 0.19 0.23 0.24 0.22 0.21 0.21 0.20 0.19 0.20 0.21 0.27 0.32 0.48 0.54 0.56 0.56 0.56 0.59 0.63 0.67 0.71 0.73 0.74 0.72
0.50 0.49 0.49 0.51 0.51 0.51 0.50 0.50 0.49 0.47 0.48 0.44 0.37 0.25 0.14 0.17 0.26 0.24 0.35 0.35 0.33 0.28 0.20 0.20 0.26 0.24 0.21 0.26 0.31 0.34 0.31 0.31 0.32 0.29 0.30 0.36 0.36 0.34 0.31 0.32 0.31 0.27 0.28 0.27 0.26 0.33 0.29 0.21 0.20 0.21 0.21 0.21 0.21 0.22 0.21 0.21 0.20 0.17 0.16 0.15 0.15 0.16 0.15 0.20 0.21 0.25 0.26 0.21 0.20 0.21 0.20 0.20 0.20 0.20 0.25 0.36 0.40 0.43 0.46 0.51 0.54 0.59 0.66 0.69 0.69 0.70 0.72 0.75
0.51 0.50 0.49 0.50 0.51 0.51 0.50 0.50 0.49 0.48 0.49 0.45 0.35 0.23 0.29 0.30 0.43 0.44 0.33 0.21 0.28 0.32 0.32 0.27 0.30 0.27 0.31 0.32 0.36 0.38 0.37 0.29 0.28 0.30 0.32 0.34 0.36 0.29 0.31 0.30 0.27 0.23 0.28 0.28 0.28 0.25 0.22 0.19 0.20 0.22 0.23 0.24 0.23 0.22 0.22 0.20 0.19 0.18 0.15 0.16 0.15 0.17 0.20 0.23 0.24 0.27 0.25 0.21 0.20 0.21 0.19 0.19 0.20 0.21 0.25 0.36 0.36 0.40 0.46 0.44 0.48 0.55 0.60 0.63 0.67 0.70 0.71 0.68
0.51 0.48 0.49 0.50 0.50 0.50 0.50 0.50 0.49 0.50 0.43 0.35 0.28 0.26 0.26 0.40 0.47 0.49 0.43 0.30 0.24 0.30 0.30 0.29 0.27 0.26 0.29 0.39 0.40 0.43 0.31 0.26 0.23 0.28 0.28 0.32 0.35 0.31 0.32 0.27 0.25 0.24 0.25 0.26 0.21 0.21 0.18 0.18 0.22 0.25 0.24 0.22 0.21 0.22 0.21 0.20 0.20 0.17 0.16 0.16 0.16 0.20 0.20 0.19 0.24 0.26 0.27 0.23 0.21 0.20 0.19 0.20 0.22 0.24 0.28 0.38 0.44 0.46 0.50 0.53 0.54 0.55 0.53 0.57 0.58 0.59 0.58 0.56
0.51 0.50 0.50 0.49 0.49 0.49 0.51 0.50 0.48 0.42 0.38 0.36 0.31 0.30 0.48 0.57 0.55 0.52 0.38 0.26 0.23 0.27 0.29 0.28 0.28 0.28 0.32 0.32 0.41 0.38 0.31 0.30 0.30 0.26 0.32 0.29 0.29 0.33 0.32 0.27 0.24 0.24 0.23 0.24 0.23 0.20 0.17 0.18 0.22 0.24 0.24 0.22 0.19 0.19 0.19 0.18 0.16 0.19 0.19 0.18 0.19 0.21 0.22 0.23 0.23 0.26 0.27 0.26 0.24 0.20 0.19 0.20 0.22 0.23 0.25 0.34 0.42 0.43 0.50 0.55 0.59 0.64 0.64 0.63 0.65 0.64 0.59 0.51
0.52 0.51 0.50 0.49 0.49 0.51 0.50 0.48 0.35 0.35 0.44 0.39 0.42 0.50 0.56 0.60 0.59 0.56 0.37 0.27 0.27 0.24 0.35 0.31 0.33 0.29 0.33 0.43 0.45 0.36 0.36 0.37 0.34 0.34 0.32 0.27 0.29 0.31 0.29 0.31 0.27 0.22 0.24 0.24 0.23 0.21 0.19 0.22 0.24 0.22 0.22 0.21 0.19 0.18 0.18 0.18 0.17 0.18 0.20 0.20 0.21 0.23 0.24 0.26 0.27 0.26 0.23 0.20 0.23 0.18 0.16 0.17 0.21 0.23 0.26 0.28 0.26 0.28 0.41 0.44 0.47 0.54 0.56 0.58 0.58 0.62 0.71 0.73
0.53 0.51 0.50 0.50 0.50 0.50 0.51 0.34 0.35 0.43 0.37 0.37 0.46 0.51 0.58 0.60 0.63 0.56 0.37 0.24 0.16 0.22 0.29 0.19 0.32 0.22 0.34 0.31 0.33 0.34 0.39 0.29 0.36 0.38 0.35 0.31 0.34 0.29 0.30 0.29 0.29 0.22 0.23 0.23 0.21 0.20 0.17 0.23 0.24 0.21 0.20 0.19 0.19 0.18 0.19 0.20 0.18 0.17 0.18 0.22 0.22 0.25 0.27 0.29 0.26 0.24 0.19 0.17 0.22 0.23 0.16 0.16 0.21 0.22 0.25 0.30 0.26 0.28 0.37 0.44 0.50 0.53 0.52 0.53 0.57 0.66 0.71 0.75
0.54 0.52 0.51 0.52 0.51 0.51 0.36 0.26 0.45 0.41 0.30 0.40 0.53 0.58 0.57 0.58 0.63 0.51 0.26 0.20 0.16 0.22 0.19 0.25 0.24 0.26 0.27 0.26 0.27 0.34 0.22 0.22 0.37 0.41 0.35 0.35 0.30 0.37 0.28 0.27 0.28 0.28 0.28 0.26 0.21 0.16 0.19 0.20 0.22 0.22 0.20 0.18 0.18 0.17 0.19 0.19 0.17 0.16 0.21 0.23 0.24 0.26 0.27 0.27 0.25 0.23 0.21 0.23 0.26 0.25 0.21 0.18 0.17 0.21 0.31 0.32 0.31 0.33 0.34 0.39 0.45 0.49 0.54 0.59 0.64 0.74 0.80 0.80
0.56 0.53 0.52 0.53 0.52 0.51 0.41 0.41 0.36 0.31 0.36 0.49 0.59 0.58 0.57 0.57 0.59 0.51 0.26 0.14 0.13 0.30 0.19 0.24 0.22 0.37 0.26 0.27 0.28 0.25 0.25 0.33 0.28 0.34 0.38 0.34 0.33 0.31 0.31 0.27 0.25 0.23 0.27 0.26 0.14 0.20 0.19 0.19 0.22 0.21 0.20 0.18 0.16 0.17 0.19 0.20 0.17 0.16 0.20 0.24 0.27 0.29 0.30 0.28 0.26 0.23 0.24 0.21 0.20 0.22 0.24 0.17 0.17 0.25 0.36 0.34 0.26 0.29 0.36 0.41 0.40 0.45 0.50 0.58 0.63 0.67 0.76 0.82
0.57 0.54 0.52 0.51 0.52 0.52 0.49 0.39 0.35 0.35 0.47 0.61 0.59 0.56 0.55 0.58 0.49 0.31 0.25 0.15 0.31 0.26 0.33 0.21 0.31 0.29 0.25 0.29 0.26 0.28 0.28 0.35 0.28 0.34 0.37 0.35 0.32 0.31 0.23 0.27 0.28 0.27 0.28 0.25 0.17 0.21 0.22 0.25 0.26 0.25 0.21 0.17 0.17 0.18 0.20 0.19 0.15 0.16 0.21 0.26 0.29 0.30 0.29 0.28 0.26 0.24 0.23 0.20 0.18 0.20 0.22 0.16 0.16 0.27 0.28 0.33 0.27 0.27 0.36 0.42 0.43 0.44 0.46 0.54 0.64 0.70 0.78 0.84
0.57 0.53 0.52 0.53 0.53 0.47 0.43 0.41 0.36 0.46 0.55 0.62 0.58 0.55 0.55 0.49 0.38 0.22 0.22 0.12 0.30 0.22 0.26 0.27 0.21 0.21 0.24 0.22 0.25 0.27 0.27 0.31 0.33 0.36 0.35 0.29 0.30 0.32 0.29 0.31 0.26 0.26 0.25 0.26 0.24 0.25 0.29 0.33 0.35 0.31 0.26 0.22 0.21 0.21 0.21 0.20 0.18 0.22 0.22 0.24 0.27 0.28 0.27 0.28 0.27 0.25 0.22 0.18 0.19 0.20 0.21 0.17 0.15 0.27 0.32 0.27 0.28 0.39 0.42 0.46 0.48 0.50 0.52 0.58 0.65 0.71 0.76 0.80
0.57 0.55 0.55 0.56 0.45 0.44 0.41 0.26 0.33 0.50 0.60 0.61 0.57 0.54 0.49 0.38 0.26 0.22 0.16 0.14 0.28 0.30 0.30 0.25 0.20 0.25 0.22 0.20 0.20 0.26 0.27 0.28 0.28 0.33 0.30 0.32 0.29 0.29 0.28 0.24 0.28 0.24 0.24 0.22 0.22 0.25 0.28 0.30 0.30 0.30 0.29 0.28 0.30 0.28 0.29 0.28 0.26 0.23 0.21 0.21 0.25 0.24 0.25 0.24 0.24 0.25 0.19 0.17 0.19 0.20 0.19 0.19 0.13 0.32 0.40 0.47 0.54 0.52 0.48 0.44 0.47 0.50 0.53 0.58 0.64 0.70 0.76 0.80
0.58 0.56 0.56 0.53 0.48 0.49 0.33 0.25 0.39 0.56 0.60 0.57 0.57 0.46 0.35 0.21 0.28 0.20 0.16 0.36 0.22 0.29 0.28 0.24 0.26 0.24 0.23 0.21 0.20 0.23 0.23 0.25 0.27 0.27 0.28 0.27 0.26 0.25 0.25 0.20 0.21 0.18 0.17 0.17 0.16 0.25 0.23 0.25 0.29 0.28 0.31 0.31 0.29 0.28 0.28 0.28 0.27 0.24 0.22 0.22 0.19 0.19 0.19 0.17 0.20 0.17 0.17 0.16 0.20 0.21 0.22 0.19 0.23 0.39 0.48 0.54 0.55 0.55 0.56 0.57 0.57 0.57 0.59 0.64 0.68 0.73 0.78 0.82
0.58 0.56 0.56 0.52 0.48 0.41 0.37 0.43 0.48 0.55 0.57 0.58 0.53 0.42 0.27 0.21 0.15 0.20 0.22 0.28 0.24 0.36 0.32 0.34 0.29 0.26 0.25 0.22 0.20 0.23 0.25 0.21 0.25 0.25 0.28 0.28 0.26 0.26 0.29 0.26 0.24 0.20 0.14 0.17 0.18 0.19 0.21 0.26 0.26 0.26 0.28 0.31 0.30 0.24 0.24 0.23 0.24 0.22 0.22 0.22 0.18 0.16 0.16 0.14 0.16 0.17 0.17 0.19 0.22 0.20 0.22 0.20 0.40 0.48 0.58 0.54 0.58 0.61 0.65 0.69 0.72 0.69 0.68 0.70 0.72 0.77 0.80 0.85
0.57 0.56 0.48 0.46 0.45 0.41 0.39 0.42 0.48 0.53 0.52 0.56 0.46 0.30 0.27 0.19 0.16 0.29 0.25 0.29 0.31 0.39 0.38 0.35 0.32 0.29 0.28 0.23 0.22 0.23 0.21 0.24 0.25 0.24 0.26 0.25 0.24 0.23 0.26 0.29 0.28 0.24 0.22 0.21 0.17 0.18 0.16 0.17 0.21 0.24 0.22 0.29 0.28 0.26 0.26 0.23 0.22 0.22 0.24 0.21 0.17 0.16 0.15 0.13 0.14 0.13 0.14 0.16 0.18 0.22 0.17 0.22 0.26 0.39 0.63 0.63 0.66 0.68 0.71 0.77 0.80 0.80 0.80 0.81 0.83 0.84 0.86 0.87
0.57 0.52 0.48 0.43 0.41 0.39 0.38 0.40 0.47 0.49 0.51 0.48 0.36 0.23 0.18 0.17 0.22 0.20 0.27 0.29 0.32 0.40 0.32 0.32 0.32 0.29 0.26 0.26 0.26 0.23 0.22 0.21 0.26 0.24 0.23 0.23 0.20 0.23 0.24 0.26 0.29 0.28 0.25 0.18 0.21 0.20 0.18 0.19 0.24 0.27 0.26 0.28 0.25 0.28 0.30 0.26 0.24 0.24 0.24 0.22 0.17 0.15 0.18 0.14 0.17 0.16 0.16 0.16 0.15 0.20 0.21 0.34 0.36 0.62 0.67 0.68 0.67 0.67 0.72 0.76 0.80 0.78 0.80 0.83 0.82 0.84 0.86 0.88
0.51 0.44 0.46 0.36 0.33 0.32 0.37 0.39 0.47 0.47 0.43 0.35 0.26 0.18 0.16 0.20 0.17 0.29 0.32 0.40 0.35 0.36 0.33 0.31 0.28 0.28 0.26 0.25 0.26 0.23 0.24 0.22 0.23 0.23 0.22 0.22 0.22 0.20 0.25 0.26 0.27 0.28 0.24 0.19 0.22 0.18 0.20 0.19 0.26 0.28 0.28 0.26 0.27 0.28 0.29 0.29 0.20 0.25 0.24 0.19 0.20 0.23 0.19 0.16 0.16 0.20 0.18 0.15 0.14 0.31 0.31 0.42 0.54 0.57 0.61 0.62 0.62 0.63 0.72 0.80 0.79 0.77 0.79 0.82 0.81 0.83 0.85 0.87
0.45 0.44 0.33 0.35 0.33 0.37 0.39 0.40 0.44 0.42 0.39 0.26 0.19 0.15 0.19 0.22 0.30 0.34 0.39 0.34 0.34 0.36 0.29 0.24 0.26 0.27 0.24 0.23 0.24 0.23 0.23 0.24 0.23 0.21 0.19 0.22 0.21 0.23 0.23 0.25 0.29 0.29 0.28 0.25 0.23 0.26 0.19 0.21 0.27 0.26 0.24 0.27 0.30 0.31 0.31 0.30 0.29 0.27 0.21 0.22 0.26 0.27 0.24 0.17 0.12 0.14 0.12 0.10 0.12 0.23 0.20 0.27 0.28 0.24 0.59 0.58 0.57 0.60 0.68 0.72 0.75 0.75 0.77 0.75 0.77 0.79 0.81 0.81
0.43 0.40 0.36 0.31 0.34 0.43 0.45 0.42 0.40 0.42 0.34 0.24 0.16 0.19 0.28 0.20 0.32 0.36 0.38 0.35 0.32 0.33 0.27 0.25 0.27 0.30 0.26 0.25 0.23 0.23 0.24 0.21 0.22 0.21 0.20 0.21 0.19 0.24 0.22 0.23 0.28 0.28 0.28 0.29 0.25 0.24 0.25 0.20 0.24 0.27 0.27 0.27 0.30 0.31 0.29 0.31 0.31 0.26 0.24 0.27 0.18 0.15 0.14 0.18 0.15 0.11 0.10 0.09 0.11 0.18 0.26 0.26 0.30 0.31 0.47 0.49 0.53 0.57 0.63 0.70 0.71 0.70 0.72 0.73 0.74 0.76 0.79 0.82
0.46 0.40 0.31 0.42 0.42 0.48 0.45 0.40 0.36 0.36 0.31 0.20 0.19 0.17 0.22 0.23 0.31 0.34 0.34 0.33 0.33 0.31 0.26 0.26 0.27 0.29 0.29 0.25 0.25 0.25 0.25 0.20 0.24 0.22 0.20 0.20 0.18 0.28 0.24 0.24 0.24 0.26 0.29 0.29 0.25 0.26 0.25 0.21 0.22 0.29 0.28 0.29 0.29 0.28 0.23 0.26 0.30 0.30 0.28 0.24 0.26 0.20 0.16 0.15 0.14 0.15 0.13 0.11 0.10 0.15 0.23 0.20 0.35 0.39 0.49 0.49 0.56 0.60 0.63 0.65 0.66 0.67 0.69 0.71 0.73 0.75 0.77 0.79
0.41 0.35 0.36 0.56 0.50 0.54 0.46 0.36 0.33 0.35 0.28 0.19 0.22 0.21 0.28 0.23 0.28 0.33 0.35 0.37 0.30 0.28 0.25 0.25 0.29 0.26 0.26 0.27 0.27 0.25 0.27 0.26 0.25 0.24 0.23 0.23 0.22 0.32 0.29 0.27 0.26 0.25 0.26 0.27 0.25 0.27 0.23 0.26 0.20 0.26 0.30 0.30 0.23 0.25 0.24 0.26 0.24 0.23 0.23 0.22 0.22 0.20 0.24 0.20 0.19 0.15 0.13 0.12 0.11 0.12 0.13 0.21 0.37 0.51 0.53 0.54 0.59 0.63 0.65 0.63 0.66 0.68 0.69 0.73 0.74 0.75 0.76 0.78
0.50 0.40 0.41 0.62 0.57 0.54 0.40 0.34 0.27 0.25 0.25 0.28 0.29 0.25 0.25 0.26 0.28 0.32 0.36 0.37 0.33 0.33 0.29 0.25 0.26 0.25 0.26 0.27 0.26 0.27 0.27 0.28 0.27 0.25 0.27 0.26 0.27 0.22 0.35 0.33 0.28 0.26 0.24 0.25 0.23 0.25 0.23 0.24 0.21 0.24 0.25 0.25 0.28 0.31 0.26 0.27 0.26 0.24 0.22 0.20 0.22 0.19 0.17 0.14 0.15 0.19 0.17 0.14 0.13 0.12 0.11 0.23 0.42 0.59 0.60 0.59 0.64 0.65 0.68 0.67 0.66 0.70 0.71 0.72 0.74 0.76 0.78 0.78
0.41 0.31 0.41 0.68 0.59 0.43 0.30 0.22 0.25 0.32 0.28 0.23 0.21 0.25 0.23 0.30 0.28 0.34 0.34 0.35 0.31 0.27 0.31 0.26 0.26 0.26 0.26 0.27 0.28 0.29 0.29 0.29 0.31 0.32 0.33 0.27 0.33 0.34 0.40 0.46 0.38 0.33 0.23 0.19 0.20 0.26 0.26 0.26 0.24 0.22 0.23 0.28 0.31 0.35 0.32 0.32 0.32 0.32 0.28 0.24 0.24 0.23 0.21 0.17 0.13 0.16 0.18 0.19 0.20 0.19 0.16 0.24 0.51 0.62 0.65 0.63 0.65 0.67 0.69 0.70 0.67 0.69 0.70 0.72 0.75 0.78 0.81 0.82
0.40 0.38 0.69 0.73 0.51 0.39 0.27 0.22 0.30 0.27 0.24 0.24 0.31 0.28 0.28 0.26 0.29 0.34 0.32 0.32 0.29 0.27 0.27 0.27 0.25 0.26 0.27 0.29 0.31 0.31 0.30 0.29 0.32 0.31 0.36 0.34 0.36 0.42 0.48 0.47 0.47 0.40 0.31 0.29 0.25 0.26 0.28 0.23 0.22 0.24 0.28 0.31 0.38 0.41 0.40 0.38 0.33 0.30 0.33 0.35 0.26 0.21 0.21 0.20 0.18 0.20 0.18 0.20 0.18 0.19 0.16 0.28 0.53 0.66 0.67 0.66 0.69 0.70 0.72 0.71 0.67 0.69 0.70 0.72 0.74 0.77 0.78 0.79
0.44 0.46 0.57 0.70 0.51 0.48 0.28 0.18 0.20 0.22 0.24 0.26 0.26 0.25 0.28 0.28 0.31 0.32 0.31 0.31 0.31 0.26 0.27 0.27 0.27 0.29 0.27 0.32 0.35 0.31 0.33 0.28 0.39 0.37 0.35 0.39 0.36 0.51 0.51 0.49 0.48 0.40 0.34 0.30 0.22 0.31 0.20 0.26 0.23 0.21 0.21 0.24 0.28 0.32 0.33 0.36 0.35 0.33 0.32 0.34 0.34 0.29 0.24 0.24 0.24 0.25 0.19 0.22 0.22 0.19 0.15 0.26 0.51 0.66 0.70 0.68 0.69 0.67 0.69 0.72 0.71 0.66 0.67 0.70 0.72 0.75 0.78 0.79
0.48 0.61 0.61 0.55 0.55 0.49 0.25 0.32 0.25 0.19 0.21 0.22 0.24 0.25 0.28 0.31 0.33 0.32 0.31 0.31 0.33 0.30 0.29 0.28 0.29 0.30 0.29 0.33 0.36 0.37 0.37 0.34 0.33 0.43 0.41 0.39 0.40 0.50 0.51 0.51 0.52 0.44 0.46 0.46 0.38 0.36 0.24 0.25 0.21 0.18 0.18 0.16 0.16 0.19 0.22 0.25 0.29 0.36 0.38 0.35 0.34 0.29 0.24 0.21 0.18 0.21 0.18 0.25 0.25 0.21 0.25 0.39 0.57 0.63 0.64 0.65 0.64 0.63 0.67 0.68 0.71 0.71 0.70 0.71 0.73 0.73 0.74 0.75
0.43 0.39 0.52 0.48 0.48 0.49 0.42 0.48 0.44 0.32 0.27 0.25 0.23 0.29 0.34 0.29 0.31 0.37 0.38 0.35 0.34 0.32 0.32 0.31 0.31 0.31 0.29 0.30 0.32 0.35 0.36 0.41 0.35 0.35 0.39 0.38 0.43 0.46 0.51 0.52 0.51 0.50 0.52 0.48 0.43 0.38 0.29 0.31 0.26 0.22 0.22 0.21 0.21 0.26 0.38 0.39 0.36 0.31 0.35 0.35 0.32 0.32 0.31 0.26 0.23 0.20 0.17 0.25 0.23 0.27 0.31 0.39 0.46 0.52 0.57 0.59 0.61 0.58 0.60 0.63 0.65 0.67 0.69 0.71 0.72 0.72 0.72 0.72
0.52 0.46 0.45 0.37 0.45 0.48 0.41 0.42 0.40 0.40 0.30 0.32 0.25 0.37 0.32 0.35 0.38 0.33 0.36 0.32 0.33 0.32 0.31 0.31 0.29 0.26 0.27 0.29 0.31 0.34 0.38 0.38 0.40 0.39 0.37 0.38 0.44 0.47 0.52 0.52 0.51 0.51 0.53 0.47 0.49 0.40 0.33 0.27 0.29 0.27 0.27 0.30 0.33 0.32 0.37 0.38 0.34 0.38 0.35 0.35 0.37 0.34 0.31 0.26 0.22 0.20 0.25 0.25 0.21 0.33 0.40 0.34 0.41 0.49 0.53 0.55 0.58 0.59 0.61 0.62 0.62 0.64 0.66 0.68 0.68 0.69 0.70 0.71
0.41 0.54 0.57 0.53 0.38 0.31 0.32 0.31 0.40 0.36 0.38 0.42 0.41 0.46 0.40 0.37 0.36 0.31 0.33 0.35 0.34 0.34 0.29 0.30 0.30 0.29 0.28 0.27 0.29 0.29 0.34 0.36 0.37 0.35 0.42 0.41 0.40 0.43 0.43 0.49 0.48 0.51 0.51 0.48 0.51 0.41 0.34 0.28 0.36 0.32 0.32 0.38 0.40 0.40 0.41 0.38 0.39 0.41 0.40 0.39 0.36 0.38 0.34 0.28 0.29 0.30 0.29 0.23 0.21 0.34 0.42 0.38 0.45 0.49 0.54 0.56 0.59 0.59 0.59 0.61 0.63 0.65 0.67 0.66 0.65 0.65 0.69 0.70
0.58 0.59 0.60 0.61 0.37 0.38 0.32 0.33 0.34 0.36 0.38 0.45 0.45 0.45 0.38 0.36 0.32 0.34 0.32 0.32 0.33 0.32 0.32 0.26 0.29 0.29 0.28 0.28 0.29 0.28 0.31 0.29 0.32 0.40 0.40 0.39 0.39 0.39 0.37 0.40 0.46 0.50 0.49 0.48 0.49 0.49 0.40 0.35 0.39 0.36 0.34 0.36 0.39 0.40 0.42 0.38 0.40 0.40 0.42 0.42 0.42 0.39 0.37 0.36 0.35 0.36 0.33 0.30 0.35 0.40 0.43 0.42 0.48 0.51 0.55 0.59 0.64 0.63 0.63 0.66 0.65 0.63 0.63 0.63 0.64 0.65 0.66 0.68
0.50 0.51 0.47 0.49 0.46 0.36 0.32 0.34 0.41 0.42 0.40 0.48 0.41 0.41 0.40 0.36 0.32 0.33 0.34 0.32 0.29 0.32 0.35 0.31 0.31 0.31 0.30 0.29 0.29 0.27 0.30 0.32 0.34 0.33 0.40 0.40 0.39 0.40 0.37 0.38 0.37 0.44 0.48 0.44 0.47 0.50 0.40 0.38 0.42 0.39 0.33 0.34 0.39 0.41 0.42 0.40 0.39 0.37 0.42 0.44 0.44 0.42 0.41 0.41 0.40 0.41 0.42 0.41 0.42 0.42 0.40 0.40 0.52 0.60 0.61 0.65 0.66 0.66 0.64 0.62 0.63 0.65 0.66 0.64 0.63 0.64 0.65 0.67
0.66 0.70 0.62 0.36 0.30 0.34 0.39 0.44 0.43 0.41 0.40 0.43 0.41 0.40 0.40 0.37 0.33 0.34 0.33 0.37 0.31 0.29 0.31 0.30 0.32 0.31 0.32 0.30 0.30 0.30 0.34 0.35 0.35 0.36 0.39 0.38 0.33 0.40 0.35 0.38 0.44 0.38 0.42 0.42 0.46 0.47 0.44 0.42 0.47 0.41 0.31 0.32 0.38 0.38 0.38 0.39 0.37 0.36 0.37 0.40 0.41 0.40 0.36 0.40 0.38 0.44 0.40 0.38 0.42 0.42 0.38 0.39 0.51 0.59 0.61 0.62 0.63 0.63 0.61 0.62 0.61 0.63 0.64 0.66 0.64 0.66 0.65 0.65
0.70 0.73 0.63 0.48 0.32 0.43 0.39 0.45 0.45 0.40 0.34 0.39 0.39 0.37 0.37 0.36 0.36 0.33 0.28 0.35 0.35 0.34 0.31 0.30 0.31 0.30 0.30 0.30 0.29 0.31 0.34 0.35 0.35 0.36 0.38 0.39 0.41 0.43 0.45 0.45 0.45 0.39 0.37 0.37 0.47 0.42 0.44 0.43 0.38 0.37 0.30 0.32 0.40 0.40 0.38 0.36 0.34 0.29 0.32 0.38 0.42 0.44 0.44 0.46 0.47 0.49 0.48 0.47 0.40 0.36 0.38 0.49 0.52 0.58 0.56 0.58 0.60 0.60 0.61 0.61 0.60 0.62 0.65 0.66 0.65 0.68 0.67 0.65
Wind_Speed
26 25 26 25 25 25 25 25 25 25 25 24 24 24 24 24 24 24 24 24 24 24 24 25 25 26 26 27 26 26 26 26 26 26 26 26 26 26 26 24 23 25 24 21 21 20 19 20 21 20 19 18 17 17 18 18 17 15 15 15 16 16 15 14 13 12 10 10 11 12 11 10 11 10 9 8 7 7 7 8 9 8 9 9 8 8 8 9
26 26 26 26 26 26 26 26 26 26 26 25 25 25 25 25 25 25 25 25 25 25 25 25 25 26 26 26 26 26 26 26 26 27 27 27 27 27 26 26 24 24 24 23 22 21 20 20 21 20 19 18 18 18 18 18 18 16 15 16 17 16 15 14 14 12 11 11 11 13 12 9 11 11 9 9 9 8 7 7 8 7 7 8 8 8 9 10
27 27 27 27 27 27 27 27 27 27 27 26 26 26 26 26 26 26 26 25 25 25 25 25 25 25 26 26 26 26 26 26 26 26 27 27 29 28 27 26 25 25 25 24 23 23 22 21 21 20 19 18 18 18 18 17 17 17 16 16 17 16 15 15 15 14 13 12 11 14 13 10 11 11 10 10 10 9 9 9 9 8 9 8 8 9 9 10
27 27 28 28 28 28 28 27 27 27 27 27 27 27 27 27 26 26 26 26 26 26 26 25 25 25 25 26 26 26 25 25 25 25 25 25 27 27 27 27 26 25 25 23 23 23 22 21 21 20 19 18 18 18 18 18 17 17 17 17 17 16 15 16 15 15 14 13 12 13 12 11 12 11 11 11 10 11 12 13 12 11 11 9 9 9 10 11
28 28 28 28 28 28 28 28 28 28 28 28 28 27 27 27 27 27 27 26 26 26 26 26 25 25 25 25 25 25 24 23 23 23 23 24 24 26 27 27 26 25 25 23 22 23 23 21 20 20 19 18 18 17 18 19 18 17 18 18 18 17 16 16 14 14 15 14 13 12 11 12 12 11 12 12 11 13 14 14 13 13 12 11 10 9 10 11
29 29 29 29 29 29 29 29 29 28 28 29 28 28 28 28 28 27 27 27 26 26 26 26 26 25 25 25 25 25 25 24 22 21 22 22 22 24 26 27 27 25 24 24 23 23 23 21 20 20 19 19 19 18 18 18 18 18 18 19 19 19 18 16 14 15 15 14 14 12 12 13 11 11 13 13 13 14 13 13 13 13 12 11 10 10 11 11
30 30 30 30 30 30 30 29 29 29 29 29 29 29 28 28 28 28 27 27 27 26 26 26 25 25 25 25 24 25 26 26 25 22 22 21 21 23 25 26 26 25 25 24 24 24 23 22 21 20 19 19 19 19 18 18 18 19 19 19 19 19 19 18 17 16 15 15 15 13 12 13 12 13 13 13 15 14 13 13 13 13 12 11 10 11 11 11
29 29 29 30 30 30 30 30 30 30 29 29 29 29 29 29 29 28 28 27 27 26 26 26 25 25 25 25 25 25 26 27 27 25 23 22 21 22 24 26 25 25 25 25 25 24 23 23 22 20 19 19 18 18 19 18 18 20 20 19 18 19 20 19 18 18 17 16 16 14 13 14 14 14 13 13 15 14 14 13 13 13 12 11 11 11 10 10
30 30 29 30 30 30 30 30 30 30 30 30 29 29 29 29 29 28 28 27 27 26 26 26 26 25 25 25 25 25 26 27 27 26 24 23 22 23 24 25 26 25 25 25 25 25 24 23 22 21 19 20 19 19 19 19 18 20 20 19 18 19 20 19 18 18 18 17 15 14 14 15 15 14 13 14 15 14 14 13 14 14 13 12 11 11 9 9
30 30 30 30 30 30 30 30 30 30 30 30 30 29 29 29 29 28 28 28 27 27 26 26 26 26 25 26 25 25 26 26 25 25 24 24 23 23 25 25 26 25 25 25 25 25 24 23 22 21 20 20 20 21 20 20 19 19 20 20 20 20 20 19 18 18 17 16 15 14 15 15 14 13 13 15 15 14 13 13 14 14 13 12 11 10 9 8
30 30 30 30 30 30 30 30 30 30 30 30 29 29 29 29 29 28 28 28 27 27 26 26 26 26 26 26 26 25 25 24 24 24 24 24 24 24 25 25 26 26 25 25 26 26 24 23 22 21 20 20 20 20 20 20 19 19 19 19 20 20 19 19 18 18 16 15 15 15 14 14 13 13 14 15 14 14 14 14 14 13 13 12 11 11 10 8
30 30 30 30 30 30 30 30 30 30 30 29 29 29 29 29 29 29 28 28 27 27 27 26 26 26 26 26 28 27 26 25 24 24 24 24 25 25 25 26 26 26 26 25 25 26 25 24 22 21 21 20 20 19 20 19 18 18 17 17 19 17 17 19 17 17 16 14 15 14 13 15 15 15 15 15 14 14 14 14 13 13 13 12 12 11 11 9
29 29 29 29 29 29 29 29 29 29 29 29 29 29 29 29 29 29 28 28 28 27 27 27 26 26 26 27 28 28 28 28 27 26 26 26 25 25 24 25 26 27 27 26 25 26 27 25 24 23 22 20 20 19 18 18 18 18 17 17 17 15 16 17 16 16 16 14 15 14 14 16 15 16 16 15 15 14 14 14 14 14 13 12 12 12 12 10
29 28 28 28 28 29 29 28 28 28 28 28 28 29 29 29 29 29 29 28 28 27 27 26 26 26 26 26 27 28 29 29 28 28 27 26 26 25 25 25 26 27 27 26 25 25 27 27 25 24 23 21 21 20 18 16 17 17 17 17 16 15 16 17 15 15 15 14 15 13 14 16 14 15 16 16 16 15 14 14 14 14 13 13 13 13 12 11
28 28 28 28 28 28 28 27 27 28 28 28 28 28 29 29 29 29 28 28 27 27 26 26 25 25 25 26 26 27 28 27 28 28 27 27 27 25 24 25 26 26 26 26 26 25 26 26 25 23 23 22 21 20 18 17 17 17 17 16 15 16 16 16 15 16 16 15 14 13 14 14 12 13 16 15 16 16 14 14 14 14 14 14 14 14 13 12
27 27 27 26 27 27 27 26 26 27 27 27 27 28 28 29 29 29 28 28 27 26 25 24 24 24 23 23 25 25 25 26 26 28 28 28 27 26 25 24 25 25 25 26 26 25 25 25 24 24 23 22 20 19 18 17 17 17 16 16 16 16 16 15 14 15 16 15 14 13 13 12 11 12 15 15 15 15 14 15 15 15 14 14 14 14 13 13
26 26 26 26 25 26 26 25 26 26 26 26 27 27 28 28 28 28 27 27 26 25 24 22 22 23 23 23 23 24 24 25 26 27 28 28 28 26 25 24 24 24 24 24 25 25 25 23 23 23 22 21 20 19 18 19 18 17 15 15 15 15 15 15 13 13 13 13 14 13 14 13 11 10 12 13 14 14 14 15 16 15 15 14 13 13 13 13
25 25 25 25 25 25 25 24 25 25 25 25 26 26 27 27 26 26 25 25 24 23 23 22 21 21 22 23 23 23 22 23 26 27 27 27 27 27 26 25 23 23 24 23 24 25 24 23 22 21 21 21 20 20 20 19 18 16 15 15 15 15 15 15 14 13 12 12 13 13 14 15 13 11 13 14 14 14 14 15 16 16 15 14 13 13 13 13
24 24 24 24 24 24 24 23 24 24 24 24 24 24 24 23 23 23 23 24 23 21 21 22 23 20 19 21 23 23 22 22 25 26 27 27 27 27 27 25 23 24 24 23 24 24 23 22 21 22 23 23 22 22 21 18 17 16 15 15 15 15 15 15 15 15 13 13 14 14 15 15 13 11 13 15 14 11 12 14 15 15 15 14 13 13 13 13
23 23 23 22 22 22 22 22 22 22 22 22 22 21 21 21 21 22 23 24 25 24 22 22 24 23 19 19 21 21 21 22 24 25 26 27 27 27 27 26 24 24 24 24 24 24 23 23 23 24 24 23 23 21 20 18 16 16 15 14 15 15 15 15 14 15 14 14 15 15 16 15 12 10 11 13 12 10 10 13 14 15 14 14 13 13 13 12
22 22 22 21 21 21 21 21 22 22 21 21 20 20 20 20 20 20 21 23 25 26 25 23 24 25 24 23 21 20 20 21 22 24 26 27 27 26 26 26 25 24 24 24 23 23 23 24 24 24 23 23 22 20 20 19 17 16 16 15 15 15 15 15 14 14 14 15 14 14 16 14 11 10 11 11 11 11 11 12 13 14 14 13 13 13 13 11
21 21 20 20 20 20 21 21 21 21 21 20 20 20 20 20 19 18 19 21 22 25 26 25 25 26 26 26 24 22 21 22 22 24 25 27 27 26 25 25 25 24 23 23 22 22 23 24 24 23 22 21 20 20 20 19 19 18 17 16 15 15 14 13 13 12 11 14 14 13 15 13 10 10 11 10 11 11 12 13 13 14 13 13 14 14 13 12
20 19 19 20 20 20 20 20 21 21 20 20 20 20 20 19 18 18 18 19 20 22 24 25 25 25 26 25 24 23 23 23 23 24 26 27 27 26 25 24 24 23 22 23 23 22 22 22 22 22 21 21 20 20 20 19 19 19 17 16 15 15 13 12 13 11 10 12 14 14 14 12 10 9 9 9 10 10 10 11 11 13 14 14 15 15 13 13
19 19 19 19 19 19 19 19 20 19 20 20 21 20 19 18 17 18 18 18 19 20 22 24 24 25 25 23 22 23 22 22 23 24 26 27 26 25 24 24 23 23 22 23 23 23 22 20 20 21 21 22 22 21 20 20 20 19 19 17 16 15 14 13 13 11 10 10 11 12 12 11 11 9 8 7 9 9 9 9 10 13 13 13 14 14 14 13
18 18 18 18 18 18 18 18 18 18 18 18 19 19 18 17 17 17 17 17 17 18 19 22 22 24 25 23 23 23 21 22 23 23 25 27 26 24 23 23 22 22 22 22 22 21 22 20 19 21 22 22 22 22 21 21 20 19 19 19 18 16 14 13 12 10 9 9 10 12 11 11 12 10 8 7 8 9 8 8 9 12 12 12 13 14 14 13
18 18 18 18 17 17 16 16 16 16 17 17 17 17 16 16 15 17 16 14 16 18 17 19 20 22 25 25 24 23 20 21 23 23 24 25 26 24 22 22 21 22 22 21 20 20 20 20 20 21 22 21 21 22 21 21 20 19 19 19 18 16 14 13 11 10 11 10 10 12 12 11 11 10 8 8 8 7 6 7 8 10 12 12 13 13 13 12
18 18 17 17 16 15 14 15 15 16 17 17 16 16 16 15 15 16 15 12 14 17 17 18 19 20 23 25 24 23 19 20 22 22 24 25 25 24 22 22 21 21 21 19 19 19 20 21 20 20 21 21 22 21 21 21 20 19 19 17 16 16 15 14 12 11 12 12 10 10 11 11 11 10 9 8 8 6 6 7 8 10 12 11 11 11 11 12
17 17 16 16 15 15 15 15 16 16 17 16 15 15 15 15 15 15 14 11 12 15 16 17 19 19 20 23 25 23 18 18 21 21 23 25 24 23 22 22 21 20 21 20 19 19 19 20 20 19 19 20 21 21 21 21 20 20 19 16 16 16 16 15 12 11 12 11 10 11 10 10 11 10 9 9 8 7 7 7 8 10 10 10 10 11 12 12
16 16 15 15 15 15 15 16 16 17 17 16 15 15 15 15 15 14 13 12 11 13 14 17 19 19 19 22 25 23 18 17 19 19 22 24 23 22 21 21 21 20 20 21 20 18 18 19 19 19 18 19 20 20 21 21 20 20 19 16 14 14 14 13 12 12 11 10 12 13 12 10 10 10 9 9 9 9 9 8 8 8 8 8 8 10 11 12
15 15 15 15 15 14 14 16 17 17 17 16 15 15 15 16 15 14 13 13 12 12 13 16 19 18 20 22 23 23 19 17 17 19 21 22 22 21 19 19 19 19 19 19 19 19 18 18 18 18 19 19 19 18 20 22 20 18 18 17 15 13 13 12 12 12 11 11 13 14 12 10 9 10 9 9 9 10 10 9 9 8 7 7 7 8 10 10
15 15 15 15 15 14 14 15 16 17 17 16 15 15 16 16 15 15 14 13 12 11 12 15 17 18 21 22 21 22 20 17 18 19 20 21 22 21 19 19 19 18 18 18 19 18 17 18 18 19 20 19 17 17 18 20 19 17 17 18 17 15 13 12 12 12 12 13 14 13 11 9 9 11 10 8 8 8 8 9 9 8 7 7 6 6 8 9
14 14 14 15 16 16 16 16 16 17 17 16 15 16 17 16 16 16 14 11 11 12 13 15 16 17 20 20 21 22 20 18 18 19 20 20 21 21 20 20 20 19 19 20 19 17 18 19 18 17 19 19 17 16 16 17 18 17 17 18 18 15 14 14 14 13 13 13 13 13 11 9 9 11 10 8 7 7 7 8 8 7 6 6 6 6 7 8
14 14 14 15 16 17 18 18 18 18 17 16 16 16 17 16 16 17 14 10 11 12 12 14 15 16 18 19 21 22 20 18 18 18 19 20 20 21 20 19 20 19 18 19 18 17 17 18 17 17 18 19 19 17 17 18 18 19 18 18 17 15 13 15 15 13 13 13 13 13 12 10 10 11 10 8 7 7 7 7 6 6 6 6 7 6 7 8
14 14 14 15 16 17 19 19 19 19 18 17 17 17 17 16 15 16 14 11 11 12 12 13 14 16 18 18 20 22 21 19 18 17 17 19 20 21 20 19 20 19 17 17 18 18 18 16 18 19 18 18 19 18 18 18 18 18 18 17 17 17 15 16 15 14 14 13 13 12 12 12 12 11 10 9 8 7 6 7 6 5 6 6 6 6 7 8
14 14 14 15 16 18 20 21 21 20 19 19 18 18 19 17 14 14 14 11 11 12 11 11 14 17 18 17 18 21 21 18 18 17 17 19 20 21 21 20 20 19 18 18 17 18 18 17 18 19 18 18 18 18 17 17 16 16 17 16 17 19 17 15 15 16 15 13 11 11 11 12 12 11 10 9 8 7 5 5 6 5 6 6 6 6 7 8
14 14 14 15 16 17 20 22 22 21 20 20 19 19 19 17 14 14 14 11 11 11 10 11 14 16 17 17 17 20 19 17 18 17 16 17 18 19 19 20 21 20 19 18 17 16 16 16 16 17 17 17 17 17 17 17 17 16 16 18 18 17 16 15 15 14 13 13 13 12 11 12 11 11 11 10 8 7 5 6 6 6 6 6 6 6 7 8
13 14 14 15 16 18 20 22 22 21 21 21 20 19 18 16 15 14 12 9 10 10 9 11 15 16 17 17 18 20 19 17 18 18 16 16 17 18 19 18 20 21 21 19 17 16 16 16 16 16 17 17 16 16 16 17 16 16 17 18 17 15 15 16 15 13 12 13 14 13 12 13 12 11 12 10 8 8 8 8 7 7 6 6 6 7 8 9
13 14 14 15 17 19 21 23 23 21 20 20 20 18 18 17 15 13 11 9 10 9 8 11 14 15 16 18 18 19 20 18 18 18 17 16 16 17 18 18 19 21 22 20 18 16 16 15 16 16 17 17 15 15 16 16 16 16 16 17 16 15 16 16 16 14 14 14 13 11 12 14 13 12 13 12 10 10 9 9 8 7 7 7 7 8 8 9
13 14 14 15 18 20 22 23 23 21 20 20 20 18 17 17 15 13 11 10 10 10 9 10 13 13 14 17 17 18 20 19 18 17 16 16 15 15 17 18 18 19 21 22 20 17 16 16 16 16 16 16 16 16 18 18 16 15 15 16 16 15 16 16 16 15 14 14 14 11 11 14 14 13 13 13 11 11 10 9 8 8 8 7 8 8 8 9
14 15 14 16 19 21 22 23 21 20 19 19 20 18 16 15 15 13 12 12 12 12 10 10 12 12 12 15 17 17 19 19 17 16 15 15 14 14 15 16 17 17 19 21 21 18 17 17 16 15 15 16 17 18 20 19 18 17 16 17 17 15 15 15 15 15 14 14 14 13 12 14 15 14 13 12 12 11 10 9 8 8 8 8 8 8 8 9
15 15 15 17 20 22 22 21 19 19 19 18 18 18 16 15 14 14 13 13 13 13 13 12 12 12 12 14 15 16 17 17 17 16 15 15 15 13 13 14 16 17 17 19 20 19 18 18 17 15 14 15 17 18 20 19 18 18 17 17 18 17 16 15 14 15 14 13 13 14 13 14 14 13 13 12 12 11 10 9 8 8 8 7 8 8 8 8
15 15 16 18 22 23 22 19 18 19 18 18 18 17 17 15 14 14 13 12 12 14 14 12 11 12 12 13 15 15 16 16 16 16 16 15 15 14 12 12 14 16 16 17 19 20 18 17 17 16 14 15 16 16 17 18 17 17 17 17 18 18 18 16 15 15 14 13 13 12 11 12 14 13 12 12 12 11 10 9 8 7 7 6 6 7 7 7
16 15 16 20 23 22 19 17 17 18 18 17 18 17 17 15 14 15 14 12 12 13 14 13 12 12 12 12 14 15 15 15 15 16 17 16 15 14 12 11 13 14 15 16 18 18 18 17 17 16 14 14 15 14 15 16 16 16 17 17 17 18 19 18 17 15 14 14 13 11 11 12 13 13 11 11 10 9 8 7 7 7 8 7 7 7 7 7
16 15 15 20 24 20 17 18 18 18 18 17 17 18 17 16 15 15 14 13 13 13 14 14 12 11 12 12 13 14 15 15 14 15 16 16 15 14 11 10 12 13 14 16 17 18 18 18 17 16 13 13 14 13 14 15 15 16 17 16 17 17 18 18 17 14 14 15 14 12 12 13 13 12 11 10 9 8 7 7 7 7 8 7 7 7 7 7
15 16 16 20 22 19 17 18 18 18 18 18 17 18 17 15 15 17 16 13 13 14 14 13 12 11 11 11 12 12 13 14 14 14 15 15 14 13 11 9 11 12 12 14 16 17 17 17 18 17 15 14 15 15 15 15 15 15 15 15 15 16 17 18 17 15 15 15 14 13 13 13 12 12 11 11 10 8 8 7 7 7 7 7 7 7 7 7
16 16 16 18 20 19 18 18 18 18 18 18 18 17 17 15 14 16 17 15 13 14 14 13 12 11 10 11 12 11 11 13 14 14 13 13 13 13 11 9 10 10 11 11 13 15 16 16 17 18 17 16 16 16 16 15 14 14 14 13 14 15 16 17 17 17 17 16 14 14 14 13 13 13 12 11 10 9 8 8 7 8 7 7 7 7 7 7
16 15 16 17 18 18 18 18 19 19 18 19 19 17 16 16 15 16 17 15 14 14 13 12 12 11 12 12 13 12 11 12 12 13 13 12 13 12 10 9 9 9 10 11 12 13 15 14 15 16 16 15 15 15 14 14 14 15 14 13 13 14 14 15 17 18 18 16 14 15 16 15 15 14 13 12 11 10 9 9 8 8 8 7 8 7 6 6
16 14 15 17 16 17 19 19 20 20 19 19 19 17 15 15 16 17 16 15 14 13 13 12 11 11 12 13 14 13 12 11 11 12 13 12 12 11 10 9 9 9 10 11 11 13 14 13 14 15 14 13 13 13 13 13 14 14 13 12 12 12 13 14 16 17 17 16 16 17 16 15 14 14 13 12 11 10 9 9 9 9 8 8 8 7 6 6
15 13 15 16 15 18 20 20 20 21 20 20 18 16 15 15 15 16 15 14 13 12 13 13 12 11 11 12 13 13 12 12 12 12 13 12 11 11 10 10 10 10 10 11 12 13 13 13 14 15 14 12 12 12 12 13 13 13 12 12 12 11 11 12 14 15 15 15 16 16 15 13 13 13 12 12 11 11 9 8 9 8 8 8 7 6 6 6
14 14 14 15 16 18 20 19 20 20 19 19 17 15 15 14 13 14 14 14 14 13 13 14 13 11 11 11 12 12 13 14 13 12 13 12 12 12 11 12 12 11 11 12 13 13 13 14 15 14 13 12 12 12 12 13 13 13 12 11 11 11 11 11 13 14 13 13 14 14 14 14 14 13 12 12 11 10 8 8 8 7 7 7 7 6 7 7
14 14 15 16 16 18 18 18 19 19 18 17 17 15 14 14 14 14 14 13 14 14 14 14 13 11 10 10 11 12 13 13 12 12 13 12 12 12 12 12 12 11 11 13 14 14 14 14 15 14 13 13 13 13 13 13 13 13 13 12 12 12 12 12 13 14 14 14 15 16 16 15 15 14 12 12 10 9 8 8 7 7 7 6 5 5 6 7
14 14 15 16 16 17 17 17 17 18 17 17 16 15 15 15 14 14 14 12 11 12 14 14 13 11 10 10 11 13 14 13 12 12 12 10 11 12 12 11 11 11 11 12 13 14 15 15 16 15 14 14 14 14 14 13 13 14 15 15 15 15 14 13 13 14 14 15 16 16 16 15 14 14 13 11 10 9 9 8 7 7 7 6 6 6 6 6
Wind_Direction
267 267 266 266 266 266 266 266 266 265 265 265 266 266 265 265 265 265 264 264 263 262 262 261 260 259 258 257 257 257 256 253 251 248 243 240 239 237 235 235 232 227 226 226 224 222 222 222 221 220 218 219 221 221 221 221 221 219 217 218 217 215 219 220 222 224 223 231 239 246 242 229 235 236 234 242 242 239 247 254 254 258 254 249 252 234 223 232
267 266 266 265 265 265 265 265 265 265 265 265 265 265 265 265 265 265 265 264 263 263 262 261 261 260 258 257 256 256 255 252 251 247 243 241 239 236 233 232 229 225 224 226 224 220 221 222 219 217 217 219 222 221 220 222 220 216 216 218 216 214 220 222 223 228 226 229 242 248 244 235 234 234 233 240 249 244 244 255 253 250 248 250 245 232 233 235
267 266 266 265 265 265 265 265 265 265 265 265 265 265 265 265 265 265 265 264 263 263 262 262 261 260 259 257 256 256 254 252 249 246 243 241 238 234 231 229 227 224 222 224 224 221 221 221 217 216 218 220 223 222 222 222 219 216 216 218 218 216 223 229 228 232 234 232 238 246 247 242 239 240 236 234 245 248 240 242 246 245 240 239 237 236 238 238
267 266 266 265 265 264 264 264 264 264 264 264 264 265 265 265 265 265 265 264 264 263 262 261 260 260 259 257 256 253 251 250 247 242 241 239 236 232 228 226 224 221 221 222 221 219 220 219 216 216 217 221 225 223 223 222 219 217 216 216 218 216 222 231 230 233 240 238 233 241 250 249 246 244 234 229 244 255 247 240 238 232 224 224 231 239 243 244
267 267 266 265 265 264 264 264 264 264 264 264 264 264 265 265 264 264 264 264 264 263 261 260 260 259 258 257 254 249 246 246 243 238 237 237 235 230 225 223 220 219 219 219 218 216 217 218 216 216 217 221 224 223 223 222 218 218 218 217 220 219 221 229 231 235 243 242 237 240 245 245 247 243 233 232 243 251 247 240 235 225 220 224 230 239 246 247
267 267 266 266 265 264 263 263 263 263 263 264 264 264 264 264 264 264 264 264 263 262 261 259 259 258 257 256 251 245 240 240 240 236 234 235 234 227 222 219 217 217 218 217 216 214 216 217 216 216 217 221 221 220 222 222 218 219 221 219 222 223 223 229 232 238 244 243 241 242 242 244 249 247 240 239 245 249 245 235 229 226 227 230 234 241 244 244
268 267 266 266 265 264 263 263 262 262 263 263 263 263 263 263 263 263 263 263 263 262 261 259 258 257 256 254 247 243 239 238 240 236 234 235 232 225 218 215 215 216 217 216 215 214 215 215 215 215 216 220 221 220 222 221 217 217 221 221 225 227 226 232 235 238 243 244 244 246 246 247 249 249 245 246 251 250 241 231 227 228 231 233 239 244 247 246
268 267 266 265 264 264 263 262 262 262 262 262 262 262 262 263 263 262 262 262 262 261 260 258 257 256 254 250 245 243 239 238 239 235 235 235 230 221 214 214 215 215 215 215 214 213 213 213 214 215 216 220 219 218 219 218 218 217 219 222 227 230 230 235 238 239 243 245 247 247 249 248 246 250 252 250 250 244 234 229 227 228 231 237 242 245 251 252
267 267 266 265 264 264 263 262 262 262 262 261 262 262 262 262 262 262 261 261 261 260 259 257 256 254 252 247 244 243 238 236 237 234 232 231 227 219 214 214 215 215 215 215 214 212 214 213 213 214 216 220 219 219 217 215 218 217 218 223 226 230 233 235 236 238 241 245 245 244 251 254 249 253 259 250 241 235 231 227 226 227 231 239 243 244 252 251
267 266 265 265 264 263 263 262 262 261 261 261 261 261 261 261 261 261 260 260 259 258 257 255 254 252 249 245 241 239 237 235 235 230 226 225 222 216 214 215 214 213 214 214 213 212 213 212 213 214 216 219 218 220 218 214 217 216 219 226 228 232 235 233 233 236 238 241 239 236 248 256 255 253 253 248 236 229 225 223 226 229 232 236 238 241 249 249
268 267 265 264 264 264 263 262 261 261 261 260 260 260 260 260 260 259 259 258 257 257 256 254 252 250 247 243 238 235 234 233 230 225 222 221 218 215 215 216 214 213 212 213 213 212 211 210 212 214 216 219 218 220 219 216 219 221 224 230 233 234 236 233 232 234 235 239 233 230 246 258 260 253 241 238 232 224 220 222 227 229 231 233 234 239 245 249
268 267 265 264 263 263 263 262 261 260 260 260 259 259 259 259 258 258 257 256 256 255 253 252 250 247 245 242 237 234 232 229 226 223 221 219 217 218 218 217 216 215 213 212 214 212 210 211 212 214 216 217 218 219 219 219 222 225 225 230 235 235 236 233 231 231 230 236 231 228 252 260 257 252 236 228 229 224 219 222 227 227 230 231 234 239 242 250
268 267 265 264 264 263 262 261 261 260 259 259 259 258 258 257 257 256 255 255 254 253 252 250 247 245 243 241 236 234 232 230 229 227 224 221 220 220 220 220 219 218 215 214 214 212 210 211 212 215 218 217 217 218 219 221 222 224 224 225 231 235 236 234 231 227 225 232 228 229 253 256 254 252 235 223 225 224 222 224 226 227 230 231 233 238 241 251
267 266 265 264 263 262 261 260 260 259 259 258 258 257 257 256 255 255 254 253 252 251 249 247 245 242 240 238 237 235 233 231 230 227 223 220 219 220 220 220 219 217 216 215 215 212 210 211 213 216 220 218 219 221 221 221 220 222 225 225 227 229 233 237 233 224 224 233 228 231 251 251 250 246 233 224 221 220 225 227 226 228 231 231 232 237 241 252
267 265 264 263 262 261 260 259 259 259 258 258 257 257 256 255 254 253 252 250 249 247 246 244 242 239 239 239 237 235 231 228 227 224 220 218 216 217 218 217 216 214 213 213 214 212 208 210 213 216 220 219 218 220 220 220 219 219 222 227 227 224 230 240 236 225 225 236 234 233 246 248 249 236 225 225 221 219 225 226 225 228 230 230 232 236 242 253
267 265 263 262 262 261 260 259 258 258 257 257 256 256 255 254 252 250 249 247 246 244 241 240 237 235 236 235 233 231 226 224 223 219 218 216 214 215 215 213 211 210 210 211 211 210 209 211 214 216 217 216 214 213 215 219 220 219 218 222 225 224 229 235 238 234 228 233 237 235 236 241 250 237 222 221 223 222 224 226 226 226 228 231 233 237 243 251
266 264 262 262 262 261 259 258 258 257 256 256 255 255 254 252 250 247 245 242 241 239 235 234 232 231 232 231 231 228 223 221 218 216 215 213 212 211 210 209 209 207 208 210 209 209 210 212 214 215 214 212 210 207 211 217 217 219 219 219 222 223 224 227 232 236 227 225 231 232 232 234 240 239 225 222 224 225 225 225 227 228 230 232 235 238 243 246
266 264 263 261 261 260 258 257 257 256 255 254 255 254 252 249 246 242 239 236 235 233 232 230 226 227 230 229 226 221 219 218 215 213 211 210 209 208 208 207 207 205 205 207 208 208 211 213 212 213 212 209 207 205 207 212 210 213 218 217 221 222 221 223 227 228 223 224 226 227 234 234 232 234 232 230 229 229 230 226 226 228 229 231 235 238 241 242
266 264 263 261 260 259 257 256 255 254 253 253 253 252 247 243 240 237 235 231 228 227 228 225 218 220 225 223 219 218 220 216 212 211 208 207 207 207 207 207 205 203 202 204 208 208 209 212 210 209 211 209 207 205 205 207 204 206 212 212 217 223 224 225 228 229 226 228 228 223 227 232 230 231 233 233 232 231 232 228 226 227 229 232 236 236 238 240
266 263 262 260 258 257 255 254 253 252 252 251 250 246 240 237 236 235 233 229 227 225 225 221 216 220 222 218 215 217 220 214 209 209 205 204 203 203 206 205 203 202 202 204 208 209 207 209 211 209 210 209 208 206 204 207 208 210 214 216 221 224 226 226 228 234 229 227 230 221 221 230 228 230 236 232 230 230 230 230 229 228 230 232 234 234 236 242
265 263 260 258 257 256 254 253 252 251 250 247 245 240 235 235 233 233 231 229 228 227 227 224 220 223 224 221 219 218 218 214 210 207 204 202 200 201 204 203 201 203 205 204 206 209 208 209 212 210 209 208 207 205 205 211 213 214 217 220 224 221 222 226 229 240 233 222 227 218 217 228 228 235 242 229 226 232 227 226 229 229 230 231 231 233 236 244
264 261 259 257 257 256 254 253 251 249 247 243 239 234 233 233 230 231 231 228 228 226 226 226 223 226 226 225 225 221 215 212 210 207 202 200 199 200 201 200 200 203 205 203 205 209 210 212 213 210 207 205 206 205 205 211 211 212 214 216 220 217 221 231 232 242 236 219 222 214 211 224 231 238 239 226 229 235 228 224 223 221 223 227 228 231 236 243
263 260 259 257 256 256 255 253 251 248 243 237 232 228 231 232 231 232 229 225 228 225 223 223 222 223 223 223 222 214 208 206 207 206 200 197 198 199 198 198 200 201 202 203 204 206 210 214 211 206 204 204 208 206 204 210 212 211 212 211 216 216 220 230 231 240 237 219 215 206 208 223 233 240 243 241 245 246 240 235 228 223 223 225 226 228 232 238
262 260 258 257 256 255 254 253 249 243 237 232 229 227 229 231 231 229 224 222 226 224 221 220 218 218 217 216 211 203 203 204 204 204 200 196 196 197 198 198 198 200 203 204 203 206 211 212 206 202 203 205 209 208 204 209 215 215 212 210 214 220 221 226 232 240 235 221 209 200 210 225 228 231 239 253 262 256 247 239 235 236 235 234 233 234 237 241
260 259 257 256 255 253 253 251 241 233 231 227 224 223 226 229 227 221 218 222 225 222 219 217 215 215 212 208 203 199 200 204 204 202 199 198 196 195 197 198 198 201 204 203 202 208 211 208 201 201 204 205 207 210 208 207 213 218 216 211 213 220 223 225 231 232 219 215 211 200 205 224 229 226 226 244 264 263 252 241 238 241 242 240 238 239 244 250
259 258 256 254 252 251 249 240 229 226 224 219 216 219 223 225 220 214 212 221 226 220 213 210 209 210 206 202 199 197 199 205 204 200 198 198 197 195 197 199 199 201 201 201 203 207 206 202 200 201 203 204 206 210 210 205 208 217 217 210 211 215 215 217 219 213 206 208 210 201 201 218 229 227 231 243 254 263 267 260 253 248 245 243 241 243 247 252
258 256 253 250 247 245 238 228 223 221 214 211 214 218 220 217 211 209 209 219 226 214 206 206 204 202 201 199 195 193 199 202 198 199 198 196 197 196 197 200 200 200 199 199 203 206 201 199 200 200 200 203 206 210 209 204 206 215 213 204 205 207 207 211 208 203 208 210 213 211 204 214 225 226 237 242 237 253 274 273 273 266 254 249 250 250 250 253
255 253 249 244 240 236 231 225 220 214 208 211 215 214 212 209 205 204 203 210 214 204 201 203 199 196 196 194 191 191 197 194 192 198 196 192 194 194 197 201 199 198 198 196 200 203 199 197 199 199 200 204 206 206 204 203 207 213 208 199 201 205 207 211 207 206 212 209 219 229 216 214 228 233 243 243 234 250 267 273 284 284 266 251 249 250 250 252
251 247 242 237 235 231 225 219 213 208 209 211 211 209 207 204 199 197 197 202 201 196 197 195 193 193 190 186 188 191 194 191 190 192 189 189 193 192 196 199 196 197 200 199 200 202 199 197 196 197 201 205 204 202 200 201 208 210 203 198 202 208 210 211 209 210 214 212 221 230 219 215 235 244 248 245 243 253 262 267 280 290 280 258 251 251 251 252
245 240 236 234 230 223 218 215 211 208 208 208 207 206 202 196 193 191 195 199 197 192 191 190 191 190 184 182 186 190 192 191 188 185 184 188 191 192 194 194 192 195 201 202 201 202 201 199 197 198 199 200 199 199 198 199 203 203 200 200 204 210 212 213 215 212 214 222 225 226 217 214 235 246 246 246 250 257 262 268 274 283 288 275 264 256 252 253
239 235 233 229 223 215 214 212 206 201 202 202 203 201 193 189 189 189 192 197 194 190 187 187 189 185 181 182 184 188 190 190 187 184 186 188 190 193 193 192 194 195 199 203 202 203 203 201 202 202 199 196 195 198 200 201 201 201 202 202 204 212 213 214 221 215 213 224 226 223 218 218 230 238 242 248 256 265 269 270 270 273 277 277 274 263 254 253
233 232 229 225 219 213 211 206 198 196 197 199 198 192 186 187 192 192 192 194 191 187 184 184 187 185 182 183 185 187 187 188 189 188 189 189 191 195 194 194 196 194 199 202 201 204 206 205 206 204 201 196 195 201 205 203 201 200 201 200 201 210 212 214 222 218 217 223 221 220 224 228 230 233 240 248 254 267 274 269 265 264 267 273 273 264 257 256
229 229 226 223 218 214 210 204 200 197 196 196 192 185 182 186 192 193 191 190 184 183 183 182 184 183 181 183 188 188 185 188 191 190 191 191 192 197 198 197 195 193 197 199 199 203 207 210 208 203 204 201 197 201 206 204 200 198 200 198 200 205 207 215 222 220 221 223 220 223 228 229 227 229 237 247 251 257 267 268 263 261 266 273 272 263 259 260
227 227 225 221 216 213 208 202 199 195 194 192 185 181 184 186 189 189 189 189 182 180 182 180 180 180 182 185 188 188 187 190 191 187 190 192 193 198 201 200 197 194 194 195 198 201 202 208 207 202 205 203 200 203 202 199 198 200 202 200 204 209 208 215 218 216 219 220 223 230 231 227 225 228 236 243 251 254 260 263 258 261 268 270 272 269 266 266
226 225 221 216 212 209 204 198 195 192 190 187 181 182 187 186 183 181 185 187 178 178 188 189 181 179 183 186 186 187 188 191 191 189 191 193 194 198 200 201 201 196 193 195 200 200 198 206 208 204 206 202 201 204 200 194 197 205 207 205 211 214 211 215 217 214 215 218 226 231 229 229 226 229 236 238 248 253 251 252 250 261 270 268 272 274 272 270
222 219 214 210 207 202 196 192 190 188 187 183 182 187 187 184 180 177 181 183 176 182 199 197 185 180 183 186 186 188 187 188 190 191 194 195 196 199 200 203 202 198 196 196 200 199 196 205 208 204 207 206 201 202 201 199 201 207 210 211 216 216 211 213 218 219 215 216 227 226 220 224 227 234 237 231 237 243 239 242 248 260 268 269 273 274 274 275
215 211 207 206 203 195 190 187 185 185 185 183 185 188 185 184 182 176 179 182 179 185 192 187 183 182 183 185 188 188 186 187 190 192 195 197 198 200 201 204 203 201 200 197 201 203 197 205 210 203 206 209 202 200 205 207 205 207 213 214 214 215 215 213 216 223 220 217 228 227 214 215 224 234 232 225 230 236 240 248 254 262 268 270 275 276 280 282
209 206 205 203 196 188 184 183 182 183 183 184 187 187 185 186 184 179 182 186 184 184 180 178 181 182 181 184 188 188 186 188 190 191 194 197 200 200 199 202 203 202 201 197 202 207 200 205 214 209 207 208 203 200 206 214 215 213 214 212 208 212 216 215 214 218 217 218 226 227 218 218 225 229 225 222 228 231 238 248 254 263 268 272 279 282 285 286
203 200 198 194 187 182 180 180 181 182 183 185 187 186 187 189 189 191 194 193 185 179 176 177 178 179 181 183 186 187 187 189 189 190 192 195 199 200 199 201 202 202 200 198 202 207 201 202 212 213 210 207 206 205 206 212 216 213 210 212 212 212 211 212 214 214 214 218 224 225 228 229 230 231 224 221 225 227 236 246 252 261 266 271 279 282 283 283
197 195 192 186 182 179 177 178 180 181 183 185 186 186 188 189 193 199 202 196 187 178 176 173 170 175 181 182 185 188 188 189 188 189 194 194 194 199 201 201 203 201 198 198 202 205 203 202 207 213 212 207 208 211 209 209 209 209 209 212 215 214 210 211 215 215 212 217 220 223 233 236 232 233 227 221 226 231 237 246 254 262 266 272 280 281 280 280
193 193 189 184 181 177 175 178 181 182 184 186 186 188 189 190 194 200 204 199 191 184 182 175 170 175 179 181 187 191 188 189 191 191 194 194 192 194 197 199 202 200 196 198 202 204 203 202 204 210 210 208 214 217 213 209 208 210 212 214 214 212 208 209 217 220 216 217 220 220 230 236 232 233 231 225 228 232 235 242 253 263 269 275 283 283 281 281
191 190 187 183 180 177 176 180 184 184 185 187 188 189 191 192 191 193 199 199 192 187 183 179 176 179 182 184 188 190 188 191 194 193 192 193 191 192 198 202 201 198 195 199 204 204 201 199 203 210 210 211 219 220 213 208 205 208 214 216 214 213 210 208 215 221 219 220 224 221 227 234 231 230 230 226 228 232 235 240 247 261 273 279 283 283 281 281
189 186 184 182 179 177 178 182 185 186 186 188 191 191 190 189 186 186 192 193 188 184 182 183 184 182 185 188 187 188 188 188 191 192 191 191 191 194 201 204 199 196 196 200 203 203 201 200 203 209 212 216 219 217 213 211 207 209 217 218 215 215 215 212 215 219 217 219 223 225 232 235 229 226 224 221 224 230 237 242 246 259 272 278 279 277 277 278
186 182 180 180 180 180 182 183 184 186 187 188 189 188 187 186 184 186 188 187 187 185 183 186 188 184 187 188 185 186 187 184 185 190 189 190 193 197 201 200 196 196 199 200 200 200 202 203 202 202 207 213 214 214 215 215 213 213 218 222 220 217 214 215 219 220 219 220 219 220 231 233 225 220 219 217 221 228 235 243 253 263 269 272 274 273 271 271
179 177 178 180 182 184 185 184 182 183 184 183 184 185 185 184 186 190 190 189 192 189 183 185 185 181 184 185 182 184 185 182 184 188 188 189 194 199 203 204 200 198 199 199 196 197 200 203 202 201 204 208 208 210 211 210 211 215 219 224 224 218 214 216 218 218 220 223 221 219 224 223 217 216 217 219 224 232 241 248 257 266 270 271 274 275 270 266
173 174 176 178 183 187 187 185 182 180 180 179 180 183 184 184 187 190 190 190 193 189 184 187 185 179 182 182 177 179 181 180 182 184 186 189 193 199 205 207 204 203 202 196 195 198 200 204 206 203 206 211 211 212 214 210 208 211 218 226 227 223 219 216 217 220 220 220 226 228 219 209 210 215 218 224 229 232 241 249 253 262 269 270 270 272 270 267
171 175 176 175 179 185 187 186 181 179 179 177 177 181 187 188 188 188 188 188 191 188 186 190 190 185 187 185 179 180 182 181 181 183 186 189 191 198 204 204 206 213 211 204 204 204 200 205 210 206 206 213 212 212 215 214 211 210 214 223 228 225 220 215 218 223 218 216 228 230 216 206 211 217 219 225 231 232 237 247 255 261 267 267 265 268 270 270
173 175 175 174 176 179 181 182 178 178 179 177 177 180 185 189 187 186 188 189 190 190 189 193 198 194 190 187 184 186 186 184 186 190 192 192 193 198 203 204 208 213 210 207 210 206 200 205 211 205 202 207 210 209 210 208 211 213 214 221 227 226 220 218 223 227 222 220 223 219 211 209 214 220 223 225 230 233 236 245 253 258 263 265 266 269 271 273
173 174 174 174 174 173 175 175 174 176 179 178 178 181 183 186 186 187 189 186 188 195 193 192 199 198 190 188 188 192 193 190 191 195 197 196 197 199 202 208 214 213 207 208 212 209 203 206 210 205 199 204 213 216 215 210 210 214 218 222 225 223 221 223 226 225 223 222 217 208 208 215 221 224 226 226 227 230 232 242 253 257 260 263 265 267 269 271
171 173 171 170 170 169 171 172 171 173 177 177 179 182 182 181 183 185 188 184 185 196 196 189 192 194 191 188 188 196 203 199 195 199 201 200 203 206 208 211 215 216 213 212 214 215 209 207 211 208 202 209 218 219 218 216 211 213 222 227 227 223 222 226 226 222 220 219 214 209 211 219 225 224 222 224 227 229 233 242 252 255 254 257 261 266 269 270
171 172 168 165 166 167 169 171 170 170 175 176 179 182 181 180 181 181 184 187 186 191 194 190 191 198 200 196 193 200 205 201 197 201 203 203 207 211 213 212 212 215 218 216 216 218 214 209 211 210 206 212 218 217 219 221 218 219 226 232 235 230 223 224 226 226 224 215 208 210 216 222 224 222 223 230 233 234 235 236 240 244 246 250 256 262 269 272
168 167 164 163 165 168 168 169 168 169 173 176 178 181 181 184 186 181 181 191 192 190 191 190 193 202 207 206 205 207 206 202 200 202 204 206 210 213 215 212 211 214 218 219 220 221 217 212 213 214 210 211 217 220 221 223 224 228 231 233 236 233 226 224 227 230 229 220 214 218 222 222 222 222 225 232 236 239 239 234 234 240 243 246 247 251 263 269